Вернуться в каталог

CZ-6A DEB

АктивенPO
NORAD 60802·DEBRIS·🇨🇳 China

Запущен Aug 6, 2024 с Taiyuan Satellite Launch Center

Loading…

Ближайшие Пролёты (ближайшие 24 часа)

TLE

СвежийSource: Space-Track

Эпоха: Sep 14, 2026, 06:46 UTC

1 60802U 24140GD  26257.28201196  .00000417  00000-0  82204-4 0  9990
2 60802  89.0346 262.8813 0128890 315.6455  43.4484 14.55443491110981

Отслеживайте CZ-6A DEB в реальном времени с AllMySat

Download on the App Store